Regional Weather Roundup
Issued by NWS

Home | Current Version | Previous Version | Graphics & Text | Print | Product List | Glossary On
Versions: 1 2 3 4 5 6 7 8 9 10 11 12 13 14 15 16 17 18 19 20 21 22 23 24 25 26 27 28 29 30 31 32 33 34 35 36 37 38 39 40 41 42 43 44 45 46 47 48 49 50
000
ASUS43 KLMK 020002
RWRKY
KENTUCKY REGIONAL WEATHER ROUNDUP
NATIONAL WEATHER SERVICE LOUISVILLE KY
800 PM EDT SAT AUG 01 2015

NOTE "FAIR" INDICATES FEW OR NO CLOUDS BELOW 12,000 FEET
WITH NO SIGNIFICANT WEATHER AND/OR OBSTRUCTIONS TO VISIBILITY.

KYZ001>023-026-027-061>063-070>075-020100-
WESTERN AND SOUTH CENTRAL KENTUCKY

CITY           SKY/WX    TMP DP  RH WIND       PRES   REMARKS
PADUCAH        PTSUNNY   84  70  62 NE5       29.96F
HENDERSON      MOSUNNY   82  63  51 CALM      29.96F
OWENSBORO      PTCLDY    85  62  45 N7        29.98F
HOPKINSVILLE   NOT AVBL
BOWLING GREEN  CLEAR     83  58  42 VRB7      29.98S
GLASGOW        NOT AVBL
$$

KYZ024-025-028>034-038-045-046-053-020100-
NORTH CENTRAL KENTUCKY

CITY           SKY/WX    TMP DP  RH WIND       PRES   REMARKS
LOUISVILLE/SDF PTCLDY    84  53  34 N9        29.96F
LOUISVILLE/LOU CLEAR     84  54  35 N6        29.98S
FORT KNOX      NOT AVBL
$$

KYZ035>037-039>044-047>052-055>060-089>105-020100-
NORTHEAST KENTUCKY

CITY           SKY/WX    TMP DP  RH WIND       PRES   REMARKS
LEXINGTON      PTCLDY    79  59  50 NW7       29.99R
COVINGTON      PTCLDY    79  57  46 NW8       29.98S
FRANKFORT      PTCLDY    80  59  48 NW6       29.98S
$$

KYZ054-064>069-076>088-106>120-020100-
SOUTHEAST KENTUCKY

CITY           SKY/WX    TMP DP  RH WIND       PRES   REMARKS
JACKSON        PTCLDY    79  57  46 VRB3      29.99R
LONDON         PTCLDY    82  58  43 NW7       29.99R
SOMERSET       NOT AVBL
MIDDLESBORO    CLEAR     79  67  66 NW3       29.98S
MONTICELLO     CLEAR     81  69  66 CALM      30.01R
$$




USA.gov is the U.S. government's official web portal to all federal, state and local government web resources and services.